Time,TemperatureF,DewpointF,PressureIn,WindDirection,WindDirectionDegrees,WindSpeedMPH,WindSpeedGustMPH,Humidity,HourlyPrecipIn,Conditions,Clouds,dailyrainin,SoftwareType,DateUTC
2013-05-15 00:03:00,-999.0,-99.9,-100.00,WSW,249,4.0,6.0,-999,0.00,,,0.00,,2013-05-15 04:03:00,
2013-05-15 00:12:00,-999.0,-99.9,-100.00,WSW,249,4.0,6.0,-999,0.00,,,0.00,,2013-05-15 04:12:00,
2013-05-15 00:24:00,-999.0,-99.9,-100.00,WSW,249,4.0,6.0,-999,0.00,,,0.00,,2013-05-15 04:24:00,
2013-05-15 00:30:00,-999.0,-99.9,-100.00,WSW,256,5.0,8.0,-999,0.00,,,0.00,,2013-05-15 04:30:00,
2013-05-15 01:02:00,-999.0,-99.9,-100.00,WSW,256,5.0,8.0,-999,0.00,,,0.00,,2013-05-15 05:02:00,
2013-05-15 01:12:00,-999.0,-99.9,-100.00,WSW,256,5.0,8.0,-999,0.00,,,0.00,,2013-05-15 05:12:00,
2013-05-15 01:22:00,-999.0,-99.9,-100.00,WSW,256,5.0,8.0,-999,0.00,,,0.00,,2013-05-15 05:22:00,
2013-05-15 02:30:00,-999.0,-99.9,-100.00,WSW,245,4.0,7.0,-999,0.00,,,0.00,,2013-05-15 06:30:00,
2013-05-15 03:01:00,-999.0,-99.9,-100.00,WSW,245,4.0,7.0,-999,0.00,,,0.00,,2013-05-15 07:01:00,
2013-05-15 03:11:00,-999.0,-99.9,-100.00,WSW,245,4.0,7.0,-999,0.00,,,0.00,,2013-05-15 07:11:00,
2013-05-15 03:22:00,-999.0,-99.9,-100.00,WSW,245,4.0,7.0,-999,0.00,,,0.00,,2013-05-15 07:22:00,
2013-05-15 03:30:00,-999.0,-99.9,-100.00,WSW,239,4.0,6.0,-999,0.00,,,0.00,,2013-05-15 07:30:00,
2013-05-15 04:02:00,-999.0,-99.9,-100.00,WSW,239,4.0,6.0,-999,0.00,,,0.00,,2013-05-15 08:02:00,
2013-05-15 04:12:00,-999.0,-99.9,-100.00,WSW,239,4.0,6.0,-999,0.00,,,0.00,,2013-05-15 08:12:00,
2013-05-15 04:22:00,-999.0,-99.9,-100.00,WSW,239,4.0,6.0,-999,0.00,,,0.00,,2013-05-15 08:22:00,
2013-05-15 04:30:00,-999.0,-99.9,-100.00,SW,223,6.0,12.0,-999,0.00,,,0.00,,2013-05-15 08:30:00,
2013-05-15 05:01:00,-999.0,-99.9,-100.00,SW,223,6.0,12.0,-999,0.00,,,0.00,,2013-05-15 09:01:00,
2013-05-15 05:12:00,-999.0,-99.9,-100.00,SW,223,6.0,12.0,-999,0.00,,,0.00,,2013-05-15 09:12:00,
2013-05-15 05:22:00,-999.0,-99.9,-100.00,SW,223,6.0,12.0,-999,0.00,,,0.00,,2013-05-15 09:22:00,
2013-05-15 05:30:00,-999.0,-99.9,-100.00,SW,229,5.0,9.0,-999,0.00,,,0.00,,2013-05-15 09:30:00,
2013-05-15 06:02:00,-999.0,-99.9,-100.00,SW,229,5.0,9.0,-999,0.00,,,0.00,,2013-05-15 10:02:00,
2013-05-15 06:13:00,-999.0,-99.9,-100.00,SW,229,5.0,9.0,-999,0.00,,,0.00,,2013-05-15 10:13:00,
2013-05-15 06:23:00,-999.0,-99.9,-100.00,SW,229,5.0,9.0,-999,0.00,,,0.00,,2013-05-15 10:23:00,
2013-05-15 06:30:00,-999.0,-99.9,-100.00,SSW,203,6.0,13.0,-999,0.00,,,0.00,,2013-05-15 10:30:00,
2013-05-15 07:15:00,-999.0,-99.9,-100.00,SSW,203,6.0,13.0,-999,0.00,,,0.00,,2013-05-15 11:15:00,
2013-05-15 07:29:00,-999.0,-99.9,-100.00,SSW,203,6.0,13.0,-999,0.00,,,0.00,,2013-05-15 11:29:00,
2013-05-15 07:30:00,-999.0,-99.9,-100.00,South,188,4.0,7.0,-999,0.00,,,0.00,,2013-05-15 11:30:00,
2013-05-15 08:11:00,-999.0,-99.9,-100.00,South,188,4.0,7.0,-999,0.00,,,0.00,,2013-05-15 12:11:00,
2013-05-15 08:18:00,-999.0,-99.9,-100.00,South,188,4.0,7.0,-999,0.00,,,0.00,,2013-05-15 12:18:00,
2013-05-15 08:30:00,-999.0,-99.9,-100.00,SSW,201,8.0,14.0,-999,0.00,,,0.00,,2013-05-15 12:30:00,
2013-05-15 09:30:00,-999.0,-99.9,-100.00,SSW,197,7.0,12.0,-999,0.00,,,0.00,,2013-05-15 13:30:00,
2013-05-15 10:29:00,-999.0,-99.9,-100.00,SSW,197,7.0,12.0,-999,0.00,,,0.00,,2013-05-15 14:29:00,
2013-05-15 10:30:00,-999.0,-99.9,-100.00,SSW,201,7.0,12.0,-999,0.00,,,0.00,,2013-05-15 14:30:00,
2013-05-15 11:17:00,-999.0,-99.9,-100.00,SSW,201,7.0,12.0,-999,0.00,,,0.00,,2013-05-15 15:17:00,
2013-05-15 11:30:00,-999.0,-99.9,-100.00,SSW,200,9.0,15.0,-999,0.00,,,0.00,,2013-05-15 15:30:00,
2013-05-15 12:10:00,-999.0,-99.9,-100.00,SSW,200,9.0,15.0,-999,0.00,,,0.00,,2013-05-15 16:10:00,
2013-05-15 12:25:00,-999.0,-99.9,-100.00,SSW,200,9.0,15.0,-999,0.00,,,0.00,,2013-05-15 16:25:00,
2013-05-15 12:30:00,-999.0,-99.9,-100.00,SSW,197,9.0,15.0,-999,0.00,,,0.00,,2013-05-15 16:30:00,
2013-05-15 13:29:00,-999.0,-99.9,-100.00,SSW,197,9.0,15.0,-999,0.00,,,0.00,,2013-05-15 17:29:00,
2013-05-15 13:30:00,-999.0,-99.9,-100.00,South,189,9.0,17.0,-999,0.00,,,0.00,,2013-05-15 17:30:00,
2013-05-15 14:09:00,-999.0,-99.9,-100.00,South,189,9.0,17.0,-999,0.00,,,0.00,,2013-05-15 18:09:00,
2013-05-15 14:18:00,-999.0,-99.9,-100.00,South,189,9.0,17.0,-999,0.00,,,0.00,,2013-05-15 18:18:00,
2013-05-15 14:28:00,-999.0,-99.9,-100.00,South,189,9.0,17.0,-999,0.00,,,0.00,,2013-05-15 18:28:00,
2013-05-15 14:30:00,-999.0,-99.9,-100.00,SSW,201,11.0,19.0,-999,0.00,,,0.00,,2013-05-15 18:30:00,
2013-05-15 15:11:00,-999.0,-99.9,-100.00,SSW,201,11.0,19.0,-999,0.00,,,0.00,,2013-05-15 19:11:00,
2013-05-15 15:17:00,-999.0,-99.9,-100.00,SSW,201,11.0,19.0,-999,0.00,,,0.00,,2013-05-15 19:17:00,
2013-05-15 15:30:00,-999.0,-99.9,-100.00,SSW,198,8.0,16.0,-999,0.00,,,0.00,,2013-05-15 19:30:00,
2013-05-15 16:11:00,-999.0,-99.9,-100.00,SSW,198,8.0,16.0,-999,0.00,,,0.00,,2013-05-15 20:11:00,
2013-05-15 16:21:00,-999.0,-99.9,-100.00,SSW,198,8.0,16.0,-999,0.00,,,0.00,,2013-05-15 20:21:00,
2013-05-15 17:10:00,-999.0,-99.9,-100.00,SSW,196,11.0,18.0,-999,0.00,,,0.00,,2013-05-15 21:10:00,
2013-05-15 17:21:00,-999.0,-99.9,-100.00,SSW,196,11.0,18.0,-999,0.00,,,0.00,,2013-05-15 21:21:00,
2013-05-15 17:29:00,-999.0,-99.9,-100.00,SSW,196,11.0,18.0,-999,0.00,,,0.00,,2013-05-15 21:29:00,
2013-05-15 17:30:00,-999.0,-99.9,-100.00,SSW,204,13.0,22.0,-999,0.00,,,0.00,,2013-05-15 21:30:00,
2013-05-15 18:12:00,-999.0,-99.9,-100.00,SSW,204,13.0,22.0,-999,0.00,,,0.00,,2013-05-15 22:12:00,
2013-05-15 18:20:00,-999.0,-99.9,-100.00,SSW,204,13.0,22.0,-999,0.00,,,0.00,,2013-05-15 22:20:00,
2013-05-15 18:30:00,-999.0,-99.9,-100.00,SSW,203,8.0,15.0,-999,0.00,,,0.00,,2013-05-15 22:30:00,
2013-05-15 19:18:00,-999.0,-99.9,-100.00,SSW,203,8.0,15.0,-999,0.00,,,0.00,,2013-05-15 23:18:00,
2013-05-15 19:30:00,-999.0,-99.9,-100.00,South,185,8.0,14.0,-999,0.00,,,0.00,,2013-05-15 23:30:00,
2013-05-15 20:10:00,-999.0,-99.9,-100.00,South,185,8.0,14.0,-999,0.00,,,0.00,,2013-05-16 00:10:00,
2013-05-15 21:30:00,-999.0,-99.9,-100.00,SSW,199,3.0,5.0,-999,0.00,,,0.00,,2013-05-16 01:30:00,
2013-05-15 22:09:00,-999.0,-99.9,-100.00,SSW,199,3.0,5.0,-999,0.00,,,0.00,,2013-05-16 02:09:00,
2013-05-15 22:18:00,-999.0,-99.9,-100.00,SSW,199,3.0,5.0,-999,0.00,,,0.00,,2013-05-16 02:18:00,
2013-05-15 22:30:00,-999.0,-99.9,-100.00,SSW,213,5.0,9.0,-999,0.00,,,0.00,,2013-05-16 02:30:00,
2013-05-15 23:08:00,-999.0,-99.9,-100.00,SSW,213,5.0,9.0,-999,0.00,,,0.00,,2013-05-16 03:08:00,
2013-05-15 23:28:00,-999.0,-99.9,-100.00,SSW,213,5.0,9.0,-999,0.00,,,0.00,,2013-05-16 03:28:00,
2013-05-15 23:30:00,-999.0,-99.9,-100.00,SW,223,3.0,6.0,-999,0.00,,,0.00,,2013-05-16 03:30:00,